TimeCST,TemperatureF,Dew PointF,Humidity,Sea Level PressureIn,VisibilityMPH,Wind Direction,Wind SpeedMPH,Gust SpeedMPH,PrecipitationIn,Events,Conditions,WindDirDegrees,DateUTC
12:53 AM,54.0,46.9,77,29.99,10.0,South,18.4,-,N/A,,Clear,180,2012-11-30 06:53:00
1:53 AM,53.1,46.9,80,29.97,10.0,South,20.7,-,N/A,,Clear,190,2012-11-30 07:53:00
2:53 AM,51.1,46.9,86,29.97,9.0,South,16.1,-,N/A,,Clear,190,2012-11-30 08:53:00
3:53 AM,50.0,46.9,89,29.96,8.0,South,19.6,-,N/A,,Clear,190,2012-11-30 09:53:00
4:53 AM,48.0,46.9,96,29.98,6.0,South,9.2,-,N/A,,Clear,190,2012-11-30 10:53:00
5:53 AM,46.0,44.1,93,30.00,4.0,South,3.5,-,N/A,,Clear,180,2012-11-30 11:53:00
6:53 AM,45.0,44.1,97,30.02,4.0,South,6.9,-,N/A,,Clear,180,2012-11-30 12:53:00
7:08 AM,42.8,42.8,100,30.03,2.0,South,5.8,-,N/A,,Clear,180,2012-11-30 13:08:00
7:20 AM,42.8,42.8,100,30.03,1.0,ESE,3.5,-,N/A,,Mist,110,2012-11-30 13:20:00
7:27 AM,42.8,42.8,100,30.03,0.2,SE,4.6,-,N/A,Fog,Fog,140,2012-11-30 13:27:00
7:53 AM,44.1,44.1,100,30.03,0.2,SSE,3.5,-,N/A,Fog,Fog,150,2012-11-30 13:53:00
8:40 AM,46.4,46.4,100,30.05,2.0,SSE,5.8,-,N/A,,Scattered Clouds,150,2012-11-30 14:40:00
8:53 AM,48.9,48.0,97,30.04,3.0,South,8.1,-,N/A,,Partly Cloudy,170,2012-11-30 14:53:00
9:53 AM,53.1,51.1,93,30.03,5.0,SSE,11.5,-,N/A,,Clear,160,2012-11-30 15:53:00
10:53 AM,57.0,51.1,81,30.02,7.0,South,11.5,-,N/A,,Clear,170,2012-11-30 16:53:00
11:53 AM,61.0,51.1,70,30.00,8.0,South,11.5,-,N/A,,Clear,170,2012-11-30 17:53:00
12:53 PM,64.0,48.0,56,29.97,10.0,SSW,15.0,-,N/A,,Clear,210,2012-11-30 18:53:00
1:53 PM,66.9,46.9,49,29.95,10.0,SSW,16.1,23.0,N/A,,Clear,210,2012-11-30 19:53:00
2:53 PM,69.1,43.0,39,29.93,10.0,SSW,11.5,-,N/A,,Clear,200,2012-11-30 20:53:00
3:53 PM,68.0,37.0,32,29.93,10.0,SW,11.5,-,N/A,,Clear,230,2012-11-30 21:53:00
4:53 PM,64.0,35.1,34,29.94,10.0,WSW,8.1,-,N/A,,Clear,240,2012-11-30 22:53:00
5:53 PM,61.0,33.1,35,29.94,10.0,Calm,Calm,-,N/A,,Clear,0,2012-11-30 23:53:00
6:53 PM,55.0,33.1,43,29.95,10.0,Calm,Calm,-,N/A,,Clear,0,2012-12-01 00:53:00
7:53 PM,53.1,33.1,47,29.95,10.0,Calm,Calm,-,N/A,,Clear,0,2012-12-01 01:53:00
8:53 PM,54.0,42.1,64,29.94,10.0,SSE,6.9,-,N/A,,Clear,160,2012-12-01 02:53:00
9:53 PM,55.4,46.4,72,29.94,10.0,South,10.4,-,N/A,,Clear,180,2012-12-01 03:53:00
10:53 PM,60.1,48.9,67,29.91,10.0,South,16.1,-,N/A,,Clear,180,2012-12-01 04:53:00
11:53 PM,59.0,50.0,72,29.91,10.0,South,17.3,-,N/A,,Clear,180,2012-12-01 05:53:00